�������l�o���
Date,Time,MP-1(��Sv/h),MP-2(��Sv/h),MP-3(��Sv/h),MP-4(��Sv/h),MP-5(��Sv/h),MP-6(��Sv/h),MP-7(��Sv/h),MP-8(��Sv/h),����,����(m/s),���J
2018/07/06,00:00,0.841,1.167,0.840,1.503,1.024,0.464,0.806,0.767,-,CALM,�L
2018/07/06,00:10,0.840,1.165,0.838,1.503,1.023,0.468,0.804,0.767,�쓌,4.0,�L
2018/07/06,00:20,0.842,1.168,0.839,1.503,1.023,0.468,0.806,0.766,��쐼,1.5,�L
2018/07/06,00:30,0.841,1.167,0.838,1.501,1.020,0.465,0.805,0.768,-,CALM,�L
2018/07/06,00:40,0.838,1.160,0.835,1.498,1.017,0.467,0.804,0.766,���k��,8.6,�L
2018/07/06,00:50,0.842,1.169,0.839,1.503,1.021,0.468,0.804,0.766,���k��,6.4,�L
2018/07/06,01:00,0.840,1.169,0.839,1.498,1.019,0.466,0.803,0.765,�k��,6.1,�L
2018/07/06,01:10,0.838,1.164,0.835,1.495,1.014,0.466,0.800,0.763,�k��,6.7,�L
2018/07/06,01:20,0.838,1.164,0.837,1.495,1.013,0.467,0.802,0.764,�k��,6.2,�L
2018/07/06,01:30,0.839,1.163,0.838,1.495,1.013,0.466,0.803,0.766,�k��,7.1,�L
2018/07/06,01:40,0.838,1.162,0.835,1.494,1.010,0.467,0.803,0.764,�k��,6.4,�L
2018/07/06,01:50,0.839,1.161,0.836,1.493,1.012,0.467,0.800,0.764,�k�k��,6.1,�L
2018/07/06,02:00,0.841,1.161,0.835,1.492,1.010,0.464,0.801,0.765,�k�k��,5.2,�L
2018/07/06,02:10,0.840,1.163,0.838,1.492,1.010,0.467,0.802,0.765,�k�k��,3.4,�L
2018/07/06,02:20,0.838,1.162,0.834,1.491,1.006,0.466,0.801,0.763,�k�k��,4.5,�L
2018/07/06,02:30,0.838,1.158,0.832,1.489,1.007,0.466,0.799,0.761,-,CALM,�L
2018/07/06,02:40,0.835,1.156,0.831,1.486,0.999,0.465,0.799,0.764,��,9.9,�L
2018/07/06,02:50,0.836,1.156,0.832,1.486,1.002,0.464,0.798,0.760,���쓌,7.0,�L
2018/07/06,03:00,0.836,1.157,0.832,1.486,1.001,0.465,0.800,0.762,���k��,1.9,�L
2018/07/06,03:10,0.839,1.157,0.831,1.484,1.000,0.465,0.798,0.763,�k��,5.5,�L
2018/07/06,03:20,0.836,1.154,0.830,1.486,0.997,0.465,0.799,0.762,�k��,4.3,�L
2018/07/06,03:30,0.837,1.160,0.830,1.487,0.998,0.465,0.799,0.762,�k��,3.7,�L
2018/07/06,03:40,0.841,1.165,0.828,1.490,1.003,0.466,0.801,0.761,�k��,4.6,�L
2018/07/06,03:50,0.842,1.168,0.833,1.495,1.004,0.467,0.800,0.765,�k�k��,4.5,�L
2018/07/06,04:00,0.845,1.173,0.835,1.498,1.002,0.467,0.804,0.767,�k�k��,3.9,�L
2018/07/06,04:10,0.844,1.170,0.834,1.501,1.005,0.467,0.801,0.765,�k�k��,4.7,�L
2018/07/06,04:20,0.838,1.163,0.830,1.491,0.997,0.466,0.799,0.766,�k,5.3,�L
2018/07/06,04:30,0.838,1.159,0.829,1.486,0.995,0.463,0.798,0.762,�k,4.0,�L
2018/07/06,04:40,0.835,1.161,0.827,1.484,0.995,0.463,0.798,0.765,�k,4.8,�L
2018/07/06,04:50,0.837,1.157,0.829,1.483,0.993,0.462,0.796,0.763,�k,5.2,�L
2018/07/06,05:00,0.834,1.157,0.828,1.484,0.992,0.462,0.796,0.762,�k,5.9,�L
2018/07/06,05:10,0.833,1.156,0.825,1.482,0.992,0.461,0.797,0.764,�k,6.2,�L
2018/07/06,05:20,0.837,1.159,0.825,1.485,0.992,0.462,0.800,0.764,�k,6.1,�L
2018/07/06,05:30,0.838,1.165,0.826,1.491,0.997,0.462,0.799,0.764,�k,6.8,�L
2018/07/06,05:40,0.837,1.162,0.824,1.485,0.994,0.463,0.800,0.763,�k�k��,6.5,�L
2018/07/06,05:50,0.836,1.160,0.826,1.483,0.994,0.461,0.800,0.764,�k�k��,6.7,�L
2018/07/06,06:00,0.840,1.162,0.826,1.486,0.995,0.460,0.799,0.765,�k�k��,7.2,�L
2018/07/06,06:10,0.837,1.166,0.825,1.490,0.995,0.461,0.800,0.764,�k�k��,7.9,�L
2018/07/06,06:20,0.839,1.166,0.826,1.488,0.997,0.461,0.800,0.765,�k�k��,7.6,�L
2018/07/06,06:30,0.839,1.169,0.827,1.489,0.996,0.460,0.800,0.763,�k�k��,7.2,�L
2018/07/06,06:40,0.839,1.168,0.828,1.493,0.998,0.461,0.802,0.766,�k,8.2,�L
2018/07/06,06:50,0.838,1.170,0.826,1.493,0.998,0.458,0.801,0.767,�k,7.7,�L
2018/07/06,07:00,0.840,1.170,0.826,1.493,0.998,0.460,0.800,0.765,�k,7.1,�L
2018/07/06,07:10,0.839,1.173,0.827,1.497,0.999,0.460,0.801,0.766,�k,7.6,�L
2018/07/06,07:20,0.837,1.171,0.824,1.496,0.999,0.458,0.802,0.764,�k,6.9,�L
2018/07/06,07:30,0.838,1.171,0.824,1.496,0.999,0.458,0.801,0.766,�k�k��,7.1,�L
2018/07/06,07:40,0.839,1.171,0.826,1.495,1.002,0.457,0.800,0.767,�k,6.4,�L
2018/07/06,07:50,0.839,1.172,0.825,1.493,0.999,0.459,0.802,0.767,�k,7.8,�L
2018/07/06,08:00,0.838,1.171,0.825,1.496,1.002,0.458,0.802,0.766,�k,6.9,�L
2018/07/06,08:10,0.839,1.170,0.826,1.497,1.003,0.458,0.802,0.768,�k,7.9,�L
2018/07/06,08:20,0.837,1.175,0.826,1.498,1.003,0.458,0.800,0.767,�k,8.5,�L
2018/07/06,08:30,0.837,1.174,0.825,1.495,1.003,0.458,0.804,0.766,�k,7.7,�L
2018/07/06,08:40,0.838,1.175,0.826,1.499,1.006,0.458,0.803,0.767,�k,6.1,�L
2018/07/06,08:50,0.838,1.176,0.829,1.502,1.005,0.459,0.804,0.768,�k,6.3,�L
2018/07/06,09:00,0.840,1.179,0.827,1.502,1.008,0.460,0.802,0.769,�k,6.8,��
2018/07/06,09:10,0.839,1.179,0.829,1.501,1.008,0.459,0.803,0.769,�k,6.1,��
2018/07/06,09:20,0.840,1.175,0.829,1.503,1.009,0.459,0.804,0.769,�k,6.5,��
2018/07/06,09:30,0.840,1.180,0.826,1.503,1.010,0.458,0.805,0.768,�k,7.5,�L
2018/07/06,09:40,0.841,1.183,0.831,1.503,1.013,0.456,0.807,0.769,�k,7.3,��
2018/07/06,09:50,0.840,1.181,0.832,1.505,1.014,0.458,0.806,0.770,�k,6.7,��
2018/07/06,10:00,0.841,1.184,0.832,1.506,1.014,0.459,0.806,0.771,�k,5.8,��
2018/07/06,10:10,0.842,1.183,0.833,1.510,1.016,0.459,0.806,0.771,�k�k��,6.8,��
2018/07/06,10:20,0.844,1.185,0.832,1.508,1.016,0.458,0.808,0.768,�k,6.1,��
2018/07/06,10:30,0.843,1.184,0.832,1.511,1.017,0.458,0.808,0.769,�k,5.9,��
2018/07/06,10:40,0.842,1.185,0.829,1.512,1.015,0.458,0.806,0.768,�k,7.9,��
2018/07/06,10:50,0.843,1.187,0.828,1.511,1.017,0.459,0.806,0.768,�k,6.5,��
2018/07/06,11:00,0.843,1.188,0.832,1.512,1.018,0.457,0.810,0.771,�k,5.9,��
2018/07/06,11:10,0.845,1.187,0.833,1.510,1.016,0.457,0.808,0.771,�k,6.4,��
2018/07/06,11:20,0.845,1.187,0.831,1.512,1.019,0.458,0.809,0.771,�k,6.4,��
2018/07/06,11:30,0.844,1.187,0.829,1.513,1.013,0.459,0.808,0.771,�k�k��,6.7,��
2018/07/06,11:40,0.843,1.188,0.831,1.515,1.020,0.457,0.808,0.771,�k,6.3,��
2018/07/06,11:50,0.845,1.191,0.834,1.511,1.019,0.460,0.811,0.772,�k,5.6,��
2018/07/06,12:00,0.842,1.187,0.833,1.516,1.021,0.458,0.809,0.772,�k,5.9,��
2018/07/06,12:10,0.842,1.189,0.834,1.514,1.022,0.459,0.809,0.771,�k,5.0,��
2018/07/06,12:20,0.842,1.190,0.832,1.518,1.023,0.458,0.810,0.771,�k,5.0,��
2018/07/06,12:30,0.844,1.192,0.834,1.518,1.024,0.458,0.810,0.772,�k,5.9,�L
2018/07/06,12:40,0.841,1.188,0.834,1.514,1.025,0.459,0.809,0.772,�k,4.6,�L
2018/07/06,12:50,0.841,1.184,0.834,1.517,1.021,0.459,0.809,0.769,�k,4.2,�L
2018/07/06,13:00,0.838,1.182,0.832,1.511,1.021,0.460,0.809,0.768,�k,4.8,�L
2018/07/06,13:10,0.840,1.180,0.830,1.509,1.017,0.461,0.808,0.771,�k,5.0,�L
2018/07/06,13:20,0.841,1.181,0.829,1.506,1.017,0.459,0.807,0.768,�k,6.0,�L
2018/07/06,13:30,0.838,1.178,0.832,1.505,1.017,0.458,0.804,0.769,�k,5.1,�L
2018/07/06,13:40,0.841,1.178,0.830,1.507,1.018,0.460,0.803,0.769,�k,4.8,�L
2018/07/06,13:50,0.838,1.179,0.829,1.508,1.017,0.460,0.805,0.769,�k,5.0,�L
2018/07/06,14:00,0.840,1.179,0.829,1.507,1.021,0.460,0.804,0.768,�k,4.8,�L
2018/07/06,14:10,0.840,1.180,0.829,1.505,1.018,0.458,0.806,0.769,�k,4.9,�L
2018/07/06,14:20,0.839,1.181,0.831,1.508,1.018,0.460,0.808,0.770,�k,5.1,��
2018/07/06,14:30,0.840,1.179,0.833,1.509,1.021,0.460,0.807,0.769,�k,5.3,�L
2018/07/06,14:40,0.839,1.181,0.833,1.507,1.021,0.461,0.805,0.770,�k,4.4,��
2018/07/06,14:50,0.841,1.184,0.831,1.509,1.022,0.460,0.809,0.769,�k,4.7,��
2018/07/06,15:00,0.840,1.185,0.832,1.509,1.022,0.460,0.808,0.770,�k,5.1,��
2018/07/06,15:10,0.840,1.184,0.833,1.508,1.024,0.459,0.809,0.770,�k,4.1,�L
2018/07/06,15:20,0.839,1.184,0.833,1.507,1.023,0.459,0.808,0.771,�k�k��,4.5,��
2018/07/06,15:30,0.839,1.185,0.830,1.510,1.020,0.458,0.810,0.771,�k,4.2,�L
2018/07/06,15:40,0.840,1.181,0.829,1.507,1.020,0.459,0.808,0.769,�k�k��,4.6,�L
2018/07/06,15:50,0.838,1.180,0.829,1.506,1.020,0.458,0.805,0.769,�k�k��,4.6,�L
2018/07/06,16:00,0.839,1.180,0.828,1.504,1.021,0.459,0.805,0.771,�k,3.9,�L
2018/07/06,16:10,0.838,1.176,0.826,1.502,1.017,0.458,0.806,0.770,�k,3.5,�L
2018/07/06,16:20,0.837,1.176,0.827,1.498,1.015,0.457,0.805,0.770,�k,3.2,�L
2018/07/06,16:30,0.837,1.176,0.827,1.498,1.017,0.458,0.806,0.770,�k,4.0,�L
2018/07/06,16:40,0.836,1.175,0.828,1.500,1.017,0.459,0.805,0.769,�k,4.1,�L
2018/07/06,16:50,0.838,1.173,0.828,1.496,1.019,0.458,0.805,0.769,�k�k��,3.0,��
2018/07/06,17:00,0.837,1.175,0.829,1.497,1.018,0.459,0.807,0.769,�k,3.1,��
2018/07/06,17:10,0.838,1.178,0.832,1.498,1.021,0.458,0.806,0.770,�k�k��,3.1,��
2018/07/06,17:20,0.837,1.177,0.829,1.502,1.020,0.459,0.805,0.768,�k,2.8,�L
2018/07/06,17:30,0.838,1.179,0.830,1.499,1.023,0.459,0.806,0.768,�k,2.6,�L
2018/07/06,17:40,0.839,1.179,0.830,1.501,1.022,0.460,0.805,0.770,�k,2.5,�L
2018/07/06,17:50,0.839,1.180,0.831,1.499,1.021,0.458,0.806,0.769,�k,3.2,�L
2018/07/06,18:00,0.837,1.177,0.828,1.500,1.021,0.460,0.806,0.770,�k,3.3,�L
2018/07/06,18:10,0.838,1.175,0.828,1.499,1.019,0.458,0.806,0.770,�k,2.6,�L
2018/07/06,18:20,0.837,1.174,0.828,1.497,1.020,0.458,0.804,0.771,�k�k��,2.0,�L
2018/07/06,18:30,0.838,1.173,0.829,1.492,1.018,0.457,0.805,0.770,�k,2.5,�L
2018/07/06,18:40,0.833,1.171,0.826,1.492,1.015,0.459,0.804,0.768,�k,2.5,�L
2018/07/06,18:50,0.835,1.170,0.828,1.492,1.018,0.459,0.804,0.769,�k,2.3,�L
2018/07/06,19:00,0.834,1.168,0.825,1.491,1.013,0.458,0.805,0.769,�k,3.1,�L
2018/07/06,19:10,0.834,1.173,0.829,1.490,1.018,0.459,0.805,0.768,�k,3.3,�L
2018/07/06,19:20,0.833,1.168,0.828,1.490,1.017,0.458,0.802,0.770,�k,2.6,�L
2018/07/06,19:30,0.834,1.171,0.827,1.492,1.015,0.459,0.805,0.768,�k,2.6,�L
2018/07/06,19:40,0.836,1.171,0.826,1.491,1.017,0.457,0.804,0.769,�k,3.1,�L
2018/07/06,19:50,0.836,1.173,0.826,1.490,1.019,0.459,0.803,0.769,�k,2.3,�L
2018/07/06,20:00,0.837,1.170,0.828,1.492,1.016,0.458,0.805,0.769,�k,2.0,�L
2018/07/06,20:10,0.835,1.170,0.827,1.487,1.014,0.458,0.804,0.769,�k,3.6,�L
2018/07/06,20:20,0.834,1.174,0.828,1.487,1.016,0.459,0.803,0.770,�k�k��,2.8,�L
2018/07/06,20:30,0.836,1.170,0.826,1.486,1.015,0.457,0.804,0.769,�k��,2.3,�L
2018/07/06,20:40,0.833,1.170,0.826,1.487,1.012,0.457,0.805,0.768,�k�k��,2.0,�L
2018/07/06,20:50,0.834,1.171,0.825,1.486,1.014,0.457,0.803,0.767,�k�k��,2.6,�L
2018/07/06,21:00,0.835,1.170,0.828,1.489,1.015,0.459,0.805,0.769,�k�k��,2.6,�L
2018/07/06,21:10,0.836,1.171,0.826,1.489,1.016,0.458,0.803,0.769,�k�k��,2.6,�L
2018/07/06,21:20,0.836,1.172,0.826,1.489,1.014,0.460,0.802,0.771,�k��,2.2,�L
2018/07/06,21:30,0.836,1.173,0.828,1.492,1.015,0.456,0.804,0.768,�k�k��,2.2,�L
2018/07/06,21:40,0.834,1.174,0.827,1.488,1.018,0.459,0.803,0.770,�k�k��,2.0,�L
2018/07/06,21:50,0.836,1.175,0.828,1.493,1.018,0.459,0.803,0.768,�k��,2.3,�L
2018/07/06,22:00,0.836,1.171,0.827,1.492,1.018,0.459,0.803,0.769,�k�k��,2.0,�L
2018/07/06,22:10,0.835,1.176,0.825,1.489,1.018,0.458,0.804,0.767,�k�k��,2.2,�L
2018/07/06,22:20,0.834,1.174,0.825,1.489,1.019,0.458,0.803,0.770,�k�k��,1.9,�L
2018/07/06,22:30,0.834,1.173,0.827,1.489,1.018,0.458,0.801,0.770,�k��,2.0,�L
2018/07/06,22:40,0.835,1.169,0.828,1.489,1.018,0.458,0.805,0.769,�k��,2.3,�L
2018/07/06,22:50,0.836,1.172,0.825,1.488,1.020,0.458,0.805,0.770,�k�k��,2.6,�L
2018/07/06,23:00,0.834,1.172,0.825,1.487,1.021,0.459,0.804,0.770,�k�k��,2.2,�L
2018/07/06,23:10,0.835,1.172,0.826,1.487,1.018,0.459,0.803,0.770,�k�k��,2.0,�L
2018/07/06,23:20,0.834,1.171,0.824,1.486,1.015,0.458,0.803,0.768,�k��,2.3,�L
2018/07/06,23:30,0.834,1.173,0.825,1.486,1.017,0.456,0.803,0.768,�k�k��,2.6,�L
2018/07/06,23:40,0.835,1.171,0.826,1.484,1.017,0.457,0.803,0.768,�k�k��,2.5,�L
2018/07/06,23:50,0.834,1.170,0.826,1.487,1.017,0.458,0.805,0.769,�k�k��,2.8,�L
